Вернуться в каталог

STARLINK-34783

АктивенСвязьVLEO
NORAD 66337·PAYLOAD·🇺🇸 United States

Запущен Nov 6, 2025 с Cape Canaveral Space Force Station

Loading…

Ближайшие Пролёты (ближайшие 24 часа)

TLE

СвежийSource: CelesTrak SupGP

Эпоха: Sep 14, 2026, 21:01 UTC

1 66337C 25253U   26257.87618056  .00040267  00000+0  14586-2 0  2576
2 66337  43.0000 224.5087 0001212 262.5265  79.3830 15.27556210    11

Отслеживайте STARLINK-34783 в реальном времени с AllMySat

Download on the App Store